{"data":{"norad_id":64224,"intl_designator":"2025-117X","name":"STARLINK-34304","alt_names":[],"object_type":"PAYLOAD","status":"ACTIVE","operator":null,"country":"US","launch_date":"2025-05-31","launch_site_code":"AFWTR","launch_vehicle":null,"mission":null,"orbit_class":"UNKNOWN","rcs_meters":null,"size_class":null,"mass_kg":null,"dimensions":null,"purposes":["comms"],"wikipedia_slug":null,"has_3d_model":false,"image_url":null,"decayed_at":null,"tle_current":{"epoch":"2026-09-20T06:23:07.384416Z","epoch_age_seconds":157888,"freshness":"FRESH","line1":"1 64224U 25117X   26263.26605769  .00016453  00000+0  49698-3 0  9991","line2":"2 64224  53.1581 214.5764 0001476  94.5613 265.5558 15.34401629 74369","mean_motion":15.34401629,"eccentricity":0.0001476,"inclination_deg":53.1581,"raan_deg":214.5764,"arg_perigee_deg":94.5613,"mean_anomaly_deg":265.5558,"bstar":0.00049698,"rev_number":7436,"period_min":93.847658447709,"perigee_km":461.68869117528,"apogee_km":463.70810578491,"semimajor_km":6840.8353984801,"source":"CELESTRAK","updated_at":"2026-09-21T09:00:35.274690Z"}}}